Flag for Saudi Arabia Weather past 2 weeks in Turaif, Saudi Arabia

Now
73 °F

Clear.


Feels Like: 77 °F
Forecast: 70 / 95 °F
Wind: 9 mph from Northwest

Location: Turaif

Current Time: Jul 24, 2014 at 5:32:47 AM

Latest Report: Jul 24, 2014 at 5:00 AM


Visibility: 10 mi

Pressure: 29.83 "Hg

Humidity: 57%

Dew point: 57 °F

Location of TuraifLocation

Historic Weather in Turaif — Graph

°F

Turaif temperature yesterday

Maximum temperature yesterday: 95 °F (at 4:00 PM)
Minimum temperature yesterday: 68 °F (at 4:00 AM)
Average temperature yesterday: 83 °F

Past Weeks' High & Low Weather Summary

 TemperatureHumidityPressure
High102 °F (Jul 12, 2:00 PM)94% (Jul 21, 5:00 AM)29.92 "Hg (Jul 21, 5:00 AM)
Low63 °F (Jul 19, 6:00 AM)9% (Jul 11, 3:00 PM)29.62 "Hg (Jul 19, 6:00 AM)
Average83 °F38%29.82 "Hg
* Reported Jul 9 3:00 AM — Jul 24 3:00 AM, Turaif, Weather by CustomWeather, © 2014

Note: Actual official high and low records may vary slightly from our data, if they occured in-between our weather recording intervals... More about our weather records

Advertising

Turaif weather history for previous 24 hours

 ConditionsComfort  
Time TempWeatherWind HumidityBarometerVisibility
3:00 AM
Jul 24
77 °FClear.13 mph51%29.83 "Hg10 mi
2:00 AM79 °FClear.12 mph48%29.83 "Hg10 mi
1:00 AM79 °FClear.13 mph48%29.83 "Hg10 mi
12:00 AM81 °FClear.16 mph45%29.83 "Hg10 mi
11:00 PM
Jul 23
81 °FClear.13 mph37%29.83 "Hg10 mi
10:00 PM82 °FClear.14 mph35%29.83 "Hg10 mi
9:00 PM88 °FClear.12 mph29%29.80 "Hg10 mi
8:00 PM91 °FSunny.12 mph23%29.80 "Hg10 mi
7:00 PM93 °FSunny.9 mph20%29.80 "Hg10 mi
6:00 PM95 °FSunny.12 mph18%29.77 "Hg10 mi
5:00 PM95 °FSunny.No wind18%29.77 "Hg10 mi
4:00 PM95 °FSunny.No wind14%29.80 "Hg10 mi
12:00 PM90 °FSunny.2 mph27%29.86 "Hg10 mi
11:00 AM86 °FSunny.9 mph40%29.86 "Hg10 mi
9:00 AM82 °FSunny.5 mph45%29.86 "Hg10 mi
8:00 AM79 °FSunny.9 mph51%29.86 "Hg10 mi
7:00 AM75 °FSunny.9 mph57%29.86 "Hg10 mi
6:00 AM72 °FClear.9 mph61%29.83 "Hg10 mi
5:00 AM70 °FClear.12 mph60%29.83 "Hg10 mi
Weather by CustomWeather, © 2014

See weather overviewHow to use our weather pages